This demonstration page uses our WeatherBlox Daily Observations layout. Learn more.

Left ArrowRight Arrow

Hourly Observations for March 1, 2022

Temp ( °F °C ) Dew Point ( °F °C ) Humidity (%) Winds ( mph kmh ) Pressure ( in mb ) Visibility ( mi km ) Precip ( " mm )
12:59 am 00:59 Clear 33 0.6 27 -2.8 78 78 Calm 30.24 1024 10 16 0.00 0.00
1:59 am 01:59 Clear 35 1.7 28 -2.2 76 76 E 3 6 30.24 1024 10 16 0.00 0.00
2:59 am 02:59 Clear 33 0.6 28 -2.2 82 82 SE 3 6 30.22 1023 10 16 0.00 0.00
3:59 am 03:59 Clear 36 2.2 31 -0.6 82 82 Calm 30.22 1024 10 16 0.00 0.00
4:59 am 04:59 Clear 35 1.7 30 -1.1 82 82 ESE 3 6 30.21 1023 10 16 0.00 0.00
5:59 am 05:59 Clear 33 0.6 29 -1.7 85 85 ESE 3 6 30.21 1023 10 16 0.00 0.00
6:59 am 06:59 Sunny 37 2.8 33 0.6 86 86 Calm 30.22 1024 10 16 0.00 0.00
7:59 am 07:59 Mostly Cloudy 39 3.9 36 2.2 89 89 Calm 30.23 1024 10 16 0.00 0.00
8:59 am 08:59 Mostly Cloudy 51 10.6 40 4.4 66 66 SE 6 9 30.22 1023 10 16 0.00 0.00
9:59 am 09:59 Mostly Cloudy 57 13.9 40 4.4 53 53 S 9 15 30.21 1023 10 16 0.00 0.00
10:59 am 10:59 Mostly Sunny 61 16.1 38 3.3 43 43 SSW 10 17 30.19 1022 10 16 0.00 0.00
11:59 am 11:59 Partly Cloudy 62 16.7 36 2.2 38 38 SW 12 19 30.15 1021 10 16 0.00 0.00
12:59 pm 12:59 Mostly Cloudy 64 17.8 36 2.2 35 35 WSW 10 17 30.11 1020 10 16 0.00 0.00
1:59 pm 13:59 Sunny 65 18.3 37 2.8 36 36 SW 12 19 30.07 1018 10 16 0.00 0.00
2:59 pm 14:59 Mostly Cloudy 66 18.9 38 3.3 36 36 SW 12 19 30.05 1018 10 16 0.00 0.00
3:59 pm 15:59 Mostly Sunny 66 18.9 38 3.3 36 36 VRB 6 9 30.04 1017 10 16 0.00 0.00
4:59 pm 16:59 Partly Cloudy 62 16.7 39 3.9 43 43 NE 6 9 30.03 1017 10 16 0.00 0.00
5:59 pm 17:59 Sunny 61 16.1 37 2.8 41 41 undefined N/A 30.03 1017 10 16 0.00 0.00
6:59 pm 18:59 Clear 57 13.9 38 3.3 49 49 SW 5 7 30.04 1017 10 16 0.00 0.00
7:59 pm 19:59 Clear 53 11.7 38 3.3 57 57 SSW 5 7 30.04 1017 10 16 0.00 0.00
8:59 pm 20:59 Clear 55 12.8 39 3.9 55 55 S 6 9 30.04 1017 10 16 0.00 0.00
9:59 pm 21:59 Clear 54 12.2 41 5 62 62 S 7 11 30.05 1018 10 16 0.00 0.00
10:59 pm 22:59 Mostly Cloudy 56 13.3 42 5.6 60 60 SSW 10 17 30.04 1017 10 16 0.00 0.00
11:59 pm 23:59 Mostly Cloudy 57 13.9 43 6.1 60 60 SSW 12 19 30.04 1017 10 16 0.00 0.00

Powered by AerisWeather